Theta_e
303 303 304 303 303 303 302 300 301 301 301 301 302 302 302 302 301 302 302 303 305 306 308 308 308 307 307 307 306 304 303 302 301 301 300 298 297 296 295 294 293 293
302 302 302 302 302 301 302 301 301 302 301 301 301 301 302 301 301 301 302 302 303 304 306 307 307 307 307 306 305 304 303 302 301 301 300 298 297 296 295 294 293 293
300 300 301 301 303 302 301 301 301 302 302 301 301 301 301 301 301 301 302 302 302 303 304 305 306 306 306 306 305 303 302 301 300 300 299 298 297 295 295 294 293 292
300 301 302 301 302 301 301 300 300 301 301 301 301 302 302 301 300 300 300 299 301 302 302 303 303 304 305 304 304 303 302 301 301 300 298 297 296 296 295 294 293 292
299 300 300 301 300 300 300 300 300 300 301 301 301 301 301 300 299 299 299 299 300 300 300 300 301 301 302 302 302 300 298 297 296 295 295 295 295 295 294 293 292 291
298 299 299 300 300 300 300 300 300 300 300 300 301 300 300 300 299 298 297 297 297 298 298 298 298 298 298 299 298 299 298 297 296 295 295 294 293 292 292 291 291 290
297 297 297 298 298 299 299 300 300 299 299 300 298 299 299 298 297 297 297 296 296 296 296 296 296 295 295 296 296 297 297 297 296 295 295 294 293 290 289 289 289 289
295 295 297 297 297 297 296 296 295 296 297 295 297 298 297 297 296 295 295 295 295 295 295 295 295 296 293 293 295 295 296 295 294 293 293 293 290 290 288 288 288 288
294 294 294 293 294 295 295 295 294 293 294 296 297 297 296 297 296 295 294 294 294 294 295 294 294 294 293 292 293 294 294 293 293 293 293 293 290 290 289 287 287 287
292 292 291 292 293 294 294 294 293 292 292 294 296 296 296 295 295 295 294 293 293 294 294 294 293 293 292 292 293 294 294 293 292 291 292 292 291 290 289 287 287 286
291 291 291 291 292 293 293 292 291 291 291 293 295 296 295 295 293 293 293 293 293 293 293 293 293 293 293 292 292 293 293 293 292 291 292 292 291 290 288 287 287 286
292 291 291 292 292 292 292 291 291 291 292 292 294 295 294 294 294 293 293 293 293 293 293 293 293 293 293 293 293 293 293 293 292 291 291 291 290 289 287 286 286 286
292 292 292 292 291 291 290 290 290 291 291 293 292 293 294 294 293 293 292 292 292 292 292 292 292 292 292 292 292 292 292 292 291 290 290 290 289 288 286 286 286 285
293 293 292 291 291 290 290 290 290 291 291 292 291 292 293 293 293 292 292 291 292 292 292 292 291 291 291 291 291 291 291 291 291 290 289 289 288 287 286 285 285 285
294 292 291 290 290 290 290 290 290 291 290 290 291 292 293 293 293 292 292 291 291 291 291 291 291 291 291 291 290 290 290 290 290 289 289 288 287 286 285 285 284 284
293 291 291 289 289 290 290 290 290 290 290 290 290 291 291 291 291 291 292 292 291 290 290 290 290 291 289 290 291 290 289 289 289 288 288 288 287 285 284 284 283 283
292 291 289 289 289 289 289 289 289 289 289 289 289 289 290 290 290 290 291 291 291 290 290 289 290 290 289 291 292 292 289 289 288 288 287 287 286 285 283 282 282 282
292 291 289 290 289 289 289 288 288 288 288 288 288 288 288 288 289 290 290 290 290 290 290 289 289 289 291 291 292 292 290 288 288 287 286 286 285 285 284 282 281 281
291 290 290 290 290 289 288 288 288 288 288 288 288 288 287 287 288 288 289 290 290 289 289 289 289 289 290 291 291 291 292 289 287 287 286 285 285 284 284 282 281 280
290 289 290 290 290 288 288 287 287 288 288 288 288 287 287 287 287 287 288 288 289 289 289 289 288 289 290 290 290 291 291 290 287 286 286 285 284 284 283 282 281 280
289 289 289 289 289 288 287 287 288 288 287 287 287 287 287 287 287 287 287 287 287 288 289 288 288 289 290 290 290 291 291 290 287 285 285 284 284 283 282 282 281 281
288 289 289 289 288 288 287 287 287 287 287 287 286 287 287 286 287 287 287 287 287 287 287 287 288 289 289 290 290 291 291 288 286 285 284 283 283 282 282 282 281 281
288 288 289 288 288 287 287 287 287 287 287 287 286 286 286 286 286 286 286 286 286 286 286 287 287 288 289 289 290 291 290 287 285 284 283 282 282 281 281 281 281 281
288 288 288 288 288 288 288 288 288 287 287 286 286 286 285 285 286 285 285 286 286 286 286 286 287 287 288 289 289 290 288 286 285 283 282 282 281 281 281 281 281 282
288 287 288 288 288 288 288 288 287 287 287 286 286 286 286 285 284 284 285 285 285 285 285 285 286 286 287 288 289 289 288 286 284 283 282 281 280 280 280 280 281 282
287 287 287 287 288 288 288 287 287 286 285 284 284 284 285 284 283 284 283 284 284 283 284 285 285 285 286 288 288 289 289 286 284 282 281 280 280 279 279 279 280 281
Wind_Speed
8 8 9 8 8 8 8 9 8 9 9 8 9 9 9 8 7 9 10 9 9 10 10 10 10 10 10 10 10 10 11 13 13 12 13 13 13 14 13 14 12 10
9 9 8 8 7 7 7 8 9 10 9 9 9 8 7 8 9 9 10 10 10 10 10 10 10 11 11 10 11 11 10 11 13 10 12 14 13 13 14 15 14 12
8 8 9 10 10 9 9 8 8 9 9 9 8 8 8 8 9 10 10 11 11 12 11 10 10 10 11 11 11 12 12 12 13 12 13 15 14 13 13 13 12 14
9 10 10 10 9 8 8 8 8 8 8 8 9 9 8 8 9 10 10 11 11 11 11 10 11 10 11 11 11 10 12 13 13 12 14 12 12 13 13 12 12 12
10 10 8 8 7 7 7 9 10 9 9 9 8 9 9 9 10 10 10 10 10 10 10 11 10 10 10 10 10 10 9 9 7 7 9 11 11 11 11 11 12 13
7 7 7 8 8 8 9 10 10 9 9 8 10 7 8 9 9 10 10 10 9 9 10 10 10 10 9 10 9 10 10 10 10 11 11 11 10 8 8 10 12 12
8 8 9 8 8 9 10 10 9 9 9 9 6 9 8 9 9 9 9 10 10 11 11 11 10 10 9 9 9 10 10 11 11 11 13 12 11 10 7 10 11 12
8 7 8 8 9 9 10 10 9 9 8 7 9 9 8 10 9 8 8 9 10 11 11 10 10 11 10 9 10 11 11 10 10 12 12 10 7 9 9 8 10 11
7 8 7 9 10 10 11 11 9 7 7 9 10 8 8 9 9 9 9 10 10 11 11 11 11 11 10 10 11 12 12 11 10 12 14 14 13 13 12 10 10 10
9 8 8 10 11 11 12 10 8 8 8 9 9 8 9 9 9 10 10 11 11 11 11 11 11 11 9 11 12 12 12 12 10 10 10 10 12 12 12 11 13 12
10 9 10 12 13 10 11 9 8 7 8 9 9 9 9 8 9 8 10 10 11 12 11 11 11 11 11 11 11 10 11 11 11 11 12 12 12 12 12 13 13 14
11 10 12 14 12 10 10 8 8 8 9 8 9 11 9 9 10 9 10 11 11 10 10 11 10 11 12 13 13 12 11 11 11 11 11 11 10 10 11 12 13 13
11 12 12 11 11 10 8 8 9 9 9 11 9 10 11 11 10 10 9 10 10 10 11 11 10 10 11 12 12 12 12 11 11 11 11 10 10 11 11 12 12 12
13 11 9 10 8 8 9 9 9 10 11 9 8 11 12 11 11 11 9 9 11 11 11 10 11 11 11 12 11 12 11 12 12 11 11 10 10 10 11 12 12 12
11 8 7 8 7 8 9 10 11 10 9 9 10 11 10 10 10 10 11 11 11 11 11 10 11 12 11 11 11 11 11 12 12 12 12 12 11 11 11 12 12 12
8 6 7 5 7 10 10 9 9 9 9 10 11 11 10 10 9 10 11 13 12 12 11 10 11 10 12 17 15 12 12 11 11 12 12 12 12 12 11 12 13 12
7 8 5 7 9 8 9 9 9 8 9 10 11 11 11 10 9 11 12 12 13 12 12 12 11 10 16 17 19 19 13 11 12 12 11 12 12 13 13 13 11 10
9 7 7 9 8 10 9 8 7 8 10 10 10 10 10 8 10 12 12 11 11 12 13 12 11 13 18 19 21 21 17 12 11 10 11 11 12 13 12 11 12 12
7 8 9 9 10 9 7 6 8 9 10 10 12 10 7 10 12 11 12 11 12 13 13 12 11 13 18 20 19 21 19 15 10 11 11 12 12 13 13 12 11 11
7 8 10 11 9 7 7 8 8 12 11 9 8 7 10 11 11 12 11 12 13 13 12 12 12 13 18 19 19 20 19 13 11 11 11 11 13 12 11 11 11 11
8 8 10 10 8 7 7 9 11 11 10 9 9 11 11 12 12 13 13 12 12 11 12 12 11 14 17 19 20 20 17 15 11 9 9 10 11 11 11 12 13 13
7 8 9 9 8 8 9 11 11 11 11 9 9 9 9 9 9 9 12 12 12 12 12 13 12 16 18 19 21 21 21 14 11 10 10 9 10 10 11 11 11 13
7 8 9 9 8 8 10 11 11 11 10 7 9 10 10 11 11 11 10 11 12 12 13 13 11 14 18 20 21 22 18 12 11 10 10 10 10 10 11 11 12 13
7 8 10 9 8 11 12 11 10 8 9 8 11 11 11 12 10 10 9 10 12 13 13 13 12 12 18 20 21 23 18 13 11 11 11 11 10 11 10 10 12 17
8 8 9 10 10 12 11 11 10 11 9 8 10 9 11 9 9 9 10 10 11 12 14 14 11 11 17 19 21 21 17 11 10 9 10 9 9 9 8 9 9 13
8 9 10 10 12 11 9 10 8 7 8 8 9 9 9 8 8 9 11 10 9 10 10 11 11 9 10 18 18 19 19 12 9 10 11 10 9 10 9 8 10 10
Wind_Direction
208 206 213 213 217 211 202 203 206 211 210 207 210 208 208 206 202 205 208 208 211 211 208 206 204 204 204 201 200 199 199 202 202 196 199 200 202 197 197 198 201 202
214 212 215 216 220 211 212 204 207 208 211 207 211 205 203 197 206 206 209 210 211 216 213 209 207 206 202 199 198 197 201 200 204 202 200 200 204 200 202 199 198 199
215 215 215 215 216 214 211 205 207 212 212 211 207 204 201 200 207 208 212 209 209 211 213 211 209 208 205 203 198 198 199 199 204 202 201 202 200 199 202 199 198 195
219 218 219 221 220 221 212 210 214 214 214 212 210 205 201 197 204 210 214 212 212 210 209 208 210 208 207 205 202 204 206 207 208 201 202 203 202 199 199 196 201 200
217 221 224 226 226 225 216 217 217 214 214 216 210 206 206 201 200 209 210 213 215 212 207 210 210 211 209 207 202 203 203 206 202 195 205 208 207 198 199 193 195 198
227 225 225 225 223 219 223 224 221 216 216 215 213 204 210 203 204 204 206 209 212 212 211 210 209 211 206 207 201 205 201 201 200 191 200 207 206 205 197 194 190 194
222 219 225 222 229 223 227 228 224 218 217 214 205 213 199 209 210 208 207 209 209 211 210 207 207 209 205 202 203 207 205 203 198 198 200 205 198 198 190 186 189 194
224 224 222 223 228 227 228 228 221 217 213 205 214 214 199 207 209 206 207 207 209 213 215 212 209 208 200 197 202 206 207 204 199 197 203 202 195 198 193 191 187 188
225 226 221 225 227 229 230 226 220 216 204 209 213 211 206 209 205 203 204 208 211 214 212 212 210 208 199 196 204 205 205 204 201 198 197 193 191 197 193 188 185 189
228 225 221 226 227 230 230 227 217 216 205 214 214 208 210 210 205 204 204 206 212 214 213 211 209 207 200 202 203 202 203 200 195 200 204 201 199 195 189 186 190 187
224 219 225 227 229 229 231 226 219 216 211 215 211 215 214 208 211 204 208 209 213 214 213 213 210 203 203 206 208 206 204 200 197 197 200 202 201 197 191 190 190 192
235 220 221 226 228 230 229 222 219 217 216 219 212 217 212 213 210 207 208 213 216 217 214 214 209 205 206 206 206 205 204 202 200 199 202 201 200 197 191 192 191 191
233 230 230 230 227 227 219 214 216 217 215 220 213 216 215 214 213 212 212 212 216 213 213 210 208 208 209 210 209 207 206 202 200 200 200 200 199 196 192 193 191 186
236 233 232 232 228 222 218 217 216 216 219 220 210 218 220 217 212 210 210 209 216 214 213 208 208 210 212 212 210 207 203 206 202 200 199 200 198 195 193 194 192 188
243 236 230 230 223 223 222 219 218 216 215 214 216 222 221 220 216 208 208 213 217 215 213 209 209 211 209 206 205 205 204 205 203 201 198 198 197 197 197 196 194 192
250 250 238 229 226 228 229 227 223 219 215 217 220 221 221 218 216 212 214 216 214 217 215 211 214 214 210 206 203 200 199 202 202 203 200 198 195 195 199 202 200 195
254 248 236 233 230 233 228 224 223 218 220 224 226 223 221 219 212 215 218 218 218 216 216 217 217 213 207 207 208 205 199 201 200 203 201 199 196 194 195 195 197 200
250 252 241 240 233 235 228 225 221 219 224 225 226 224 224 218 219 221 222 219 220 221 221 220 221 213 206 208 209 206 201 200 200 201 199 200 198 197 198 193 192 189
253 247 245 244 238 237 229 221 218 224 227 225 226 223 217 217 223 221 225 221 220 222 225 222 226 213 211 209 208 208 201 197 204 203 199 203 201 201 197 193 188 184
254 247 247 246 243 235 224 223 219 226 226 223 223 214 216 221 221 223 223 223 222 223 226 225 225 214 211 211 210 208 204 192 207 203 204 204 204 199 197 191 185 173
253 250 251 253 244 234 226 227 226 232 226 220 215 217 215 218 217 220 222 221 222 221 225 225 224 213 213 211 211 210 200 193 208 203 204 207 206 200 195 188 184 183
255 256 253 252 245 234 228 232 230 227 226 217 217 224 224 224 228 222 224 221 221 220 223 228 223 211 212 212 212 210 205 203 205 200 202 204 203 198 194 189 185 182
257 255 258 253 245 240 236 235 232 230 228 207 217 221 219 220 222 219 219 219 220 219 223 230 226 212 210 212 212 209 201 203 199 198 201 201 199 193 190 187 186 186
258 250 254 254 246 241 241 240 235 233 228 199 212 217 220 222 218 223 220 218 218 220 219 225 227 213 211 212 211 207 199 199 197 198 201 197 195 190 187 185 185 180
263 255 251 252 249 246 241 242 234 229 225 204 218 219 226 216 213 218 222 220 221 222 220 222 227 218 212 214 212 207 201 199 196 200 199 198 187 185 183 181 179 180
264 258 254 249 251 253 246 241 238 230 221 211 219 216 225 214 213 217 220 224 217 221 222 221 224 222 214 216 213 207 199 192 195 196 200 190 184 178 177 182 178 181